Regional Weather Roundup
Issued by NWS Cleveland, OH

Home | Current Version | Previous Version | Text Only | Print | Product List | Glossary Off
Versions: 1 2 3 4 5 6 7 8 9 10 11 12 13 14 15 16 17 18 19 20 21 22 23 24 25 26 27 28 29 30 31 32 33 34 35 36 37 38 39 40 41 42 43 44 45 46 47 48 49 50

991
ASUS41 KCLE 112112
RWRCLE
OHIO REGIONAL WEATHER ROUNDUP
NATIONAL WEATHER SERVICE WILMINGTON, OH
400 PM EST THU FEB 11 2016

NOTE: "FAIR" INDICATES FEW OR NO CLOUDS BELOW 12,000 FEET WITH NO
SIGNIFICANT WEATHER AND/OR OBSTRUCTIONS TO VISIBILITY.

OHZ001>008-015>018-024>027-034-035-043-044-112200-
   NORTHWEST OHIO

CITY           SKY/WX    TMP DP  RH WIND       PRES   REMARKS
DEFIANCE       CLOUDY    22   7  52 NW10      30.26R WCI  11
FINDLAY        CLOUDY    21   5  50 NW13      30.24R WCI   9
TOLEDO EXPRESS FAIR      22   8  55 W9        30.24S WCI  12
TOLEDO EXEC    CLOUDY    21   4  47 W14       30.25R WCI   8
LIMA           CLOUDY    20   6  55 NW8       30.24R WCI  10
$$

OHZ009>014-019>023-028>033-038-089-112200-
   NORTHEAST OHIO

CITY           SKY/WX    TMP DP  RH WIND       PRES   REMARKS
CLE-HOPKINS    FLURRIES  18   7  62 W10       30.25R WCI   6
CLE-LAKEFRONT  FLURRIES  20   8  60 NW23      30.22R WCI   3
CUY CO. ARPT   FLURRIES  19   7  58 NW15G25   30.21R WCI   5
LORAIN-ELYRIA  LGT SNOW  17   7  64 NW13      30.23R WCI   4
ASHTABULA      CLOUDY    16   3  56 NW13G23   30.18R WCI   2
AKRON-CANTON   PTSUNNY   16   1  51 W14G22    30.18R WCI   2
WOOSTER        FAIR      17   3  54 W12       30.21R WCI   4
MANSFIELD      PTSUNNY   18   4  54 W9        30.19R WCI   7
YOUNGSTOWN     FAIR      17   3  54 NW15      30.16R WCI   2
$$

OHZ042-051>053-060>062-070>072-077>081-112200-
  SOUTHWEST OHIO

CITY           SKY/WX    TMP DP  RH WIND       PRES   REMARKS
CINC-COVINGTON FAIR      25   6  44 W3        30.26S
CINC-LUNKEN    FAIR      26   5  40 CALM      30.31R
HAMILTON       FAIR      24   4  42 W5        30.30R WCI  18
DAYTON         PTSUNNY   21   8  57 NW5       30.25S WCI  15
WRIGHT-PAT AFB CLOUDY    22   6  49 NW6       30.26R WCI  15
DAYTON GENERAL PTSUNNY   23   4  44 W7        30.24F WCI  15
WILMINGTON     CLOUDY    21   5  50 CALM      30.24R
$$

OHZ036-037-039>041-045>050-054>059-063>069-073>076-082>088-112200-
  CENTRAL AND SOUTHEAST OHIO

CITY           SKY/WX    TMP DP  RH WIND       PRES   REMARKS
COLUMBUS       CLOUDY    21   5  50 W9        30.25R WCI  11
OSU AIRPORT    CLOUDY    20   9  62 NW7       30.25R WCI  11
BOLTON FIELD   CLOUDY    19   7  58 W8        30.26R WCI   9
RICKENBACK AFB CLOUDY    21   8  56 NW12      30.26S WCI   9
NEWARK         CLOUDY    20   7  57 NW8       30.24R WCI  10
MARION         CLOUDY    20   3  48 NW12      30.23R WCI   8
LANCASTER      CLOUDY    21   9  59 NW9       30.26R WCI  11
ZANESVILLE     LGT SNOW  21  13  71 W9        30.24R WCI  11
NEW PHILLY     CLOUDY    19   2  47 NW15      30.23R WCI   5
$$




USA.gov is the U.S. government's official web portal to all federal, state and local government web resources and services.